User: anonymous   Login
Location: Abraham Lincoln Continuation High School
(33.9711°N, 117.3662°W)
Time: 18:50:28
(UTC+00:00)
Language:

Cosmos 1975 - Orbit

View from above orbital plane
View from above orbital plane
View from above satellite
View from above satellite

Ground track
Ground track

The orbit data is extracted from the following two-line orbital elements,

1 19573U 88093A   20331.39248412  .00000696  00000-0  47024-4 0  9997
2 19573  82.5208 207.3138 0013667 338.1822  21.8820 15.04983360749006
Epoch (UTC): 26 November 2020 09:25:10
Eccentricity: 0.0013667
inclination: 82.5208°
perigee height: 542 km
apogee height: 561 km
right ascension of ascending node: 207.3138°
argument of perigee: 338.1822°
revolutions per day: 15.04983360
mean anomaly at epoch: 21.8820°
orbit number at epoch: 74900

The dashed part of the orbit path shows where the satellite is in the earth's shadow,  

DLR